Dushanbe, Tajikistan

1:32 AM +05 on May 01, 2017 (GMT +0500)
Dushanbe

Weather History for UTDD - April, 2017

Change the Weather History Date:

Friday, April 21, 2017

  Actual Average Record
Temperature  
Mean Temperature 64 °F -  
Max Temperature 68 °F - - ()
Min Temperature 59 °F - - ()
Degree Days  
Heating Degree Days 2    
Growing Degree Days 14 (Base 50)    
Moisture  
Dew Point 54 °F    
Average Humidity 72    
Maximum Humidity 88    
Minimum Humidity 56    
Precipitation  
Precipitation 0.16 in 0.10 in - ()
Sea Level Pressure  
Sea Level Pressure 30.01 in    
Wind  
Wind Speed 6 mph ()    
Max Wind Speed 16 mph    
Max Gust Speed -    
Visibility 6.0 miles    
Events Rain , Thunderstorm    
T = Trace of Precipitation, MM = Missing Value Source: Averaged Metar Reports

Daily Weather History Graph

Daily Weather History Graph

Search for Another Location

Airport or City:

Trip Planner

Search our weather history database for the weather conditions in past years. The results will help you decide how hot, cold, wet, or windy it might be!

Date:

Astronomy

Apr. 21, 2017 Rise Set
Actual Time 5:40 AM +05 7:07 PM +05
Civil Twilight 5:12 AM +05 7:35 PM +05
Nautical Twilight 4:39 AM +05 8:08 PM +05
Astronomical Twilight 4:04 AM +05 8:43 PM +05
Moon 2:36 AM +05 (4/21) 1:27 PM +05 (4/21)
Length of Visible Light 14h 22m
Length of Day
13h 26m
Waning Crescent, 32% of the Moon is Illuminated
Apr 21
Waning Crescent
Apr 26
New
May 3
First Quarter
May 11
Full
May 19
Last Quarter

Hourly Weather History & Observations

Time (+05) Temp. Dew Point Humidity Pressure Visibility Wind Dir Wind Speed Gust Speed Precip Events Conditions
12:00 AM 64.4 °F 53.6 °F 68% 30.01 in 6.2 mi Variable 2.2 mph - N/A Thunderstorm Scattered Clouds
12:30 AM 64.4 °F 53.6 °F 68% 29.98 in 6.2 mi East 6.7 mph - N/A Thunderstorm Mostly Cloudy
1:00 AM 64.4 °F 53.6 °F 68% 29.98 in 6.2 mi East 8.9 mph - N/A Thunderstorm Overcast
1:30 AM 64.4 °F 53.6 °F 68% 29.98 in 6.2 mi East 8.9 mph - N/A Rain Light Rain Showers
2:00 AM 64 °F 54 °F 61% 29.82 in 1 mi NE 6.7 mph - - Rain , Thunderstorm Thunderstorms and Rain
2:00 AM 64.4 °F 51.8 °F 64% 29.98 in 6.2 mi East 11.2 mph - N/A Rain Light Rain Showers
2:30 AM 66.2 °F 51.8 °F 60% 29.98 in 6.2 mi East 15.7 mph - N/A Thunderstorm Mostly Cloudy
3:00 AM 66.2 °F 50.0 °F 56% 29.98 in 6.2 mi East 13.4 mph - N/A   Mostly Cloudy
3:30 AM 66.2 °F 51.8 °F 60% 29.98 in 6.2 mi East 13.4 mph - N/A   Overcast
4:00 AM 64.4 °F 51.8 °F 64% 29.98 in 6.2 mi East 11.2 mph - N/A   Mostly Cloudy
4:30 AM 64.4 °F 51.8 °F 64% 29.98 in 6.2 mi ESE 8.9 mph - N/A   Scattered Clouds
5:00 AM 60 °F 53 °F 72% 29.79 in - Calm Calm - - Thunderstorm Thunderstorm
5:00 AM 60.8 °F 51.8 °F 72% 29.98 in 6.2 mi ESE 8.9 mph - N/A Thunderstorm Scattered Clouds
5:30 AM 60.8 °F 51.8 °F 72% 29.98 in 6.2 mi ESE 8.9 mph - N/A   Scattered Clouds
6:00 AM 59.0 °F 51.8 °F 77% 29.98 in 6.2 mi ESE 6.7 mph - N/A   Mostly Cloudy
6:30 AM 59.0 °F 53.6 °F 82% 29.98 in 6.2 mi East 6.7 mph - N/A   Mostly Cloudy
7:00 AM 60.8 °F 53.6 °F 77% 30.01 in 6.2 mi Variable 4.5 mph - N/A   Mostly Cloudy
7:30 AM 62.6 °F 55.4 °F 77% 30.01 in 6.2 mi Variable 4.5 mph - N/A Rain , Thunderstorm Light Thunderstorms and Rain
8:00 AM 64 °F 54 °F 61% 29.82 in 1 mi NE 6.7 mph - - Rain , Thunderstorm Thunderstorms and Rain
8:00 AM 62.6 °F 51.8 °F 68% 30.04 in 6.2 mi North 6.7 mph - N/A Rain , Thunderstorm Light Rain Showers
8:30 AM 59.0 °F 53.6 °F 82% 30.04 in 6.2 mi NNW 11.2 mph - N/A   Overcast
9:00 AM 60.8 °F 53.6 °F 77% 30.04 in 6.2 mi NNW 6.7 mph - N/A Rain Light Rain Showers
9:30 AM 60.8 °F 53.6 °F 77% 30.06 in 6.2 mi NW 6.7 mph - N/A Rain Light Rain Showers
10:00 AM 60.8 °F 53.6 °F 77% 30.06 in 6.2 mi Variable 4.5 mph - N/A Rain Light Rain Showers
10:30 AM 62.6 °F 51.8 °F 68% 30.06 in 6.2 mi NNW 6.7 mph - N/A   Mostly Cloudy
11:00 AM 64 °F 54 °F 60% 29.85 in 6 mi Calm Calm - -   Overcast
11:00 AM 62.6 °F 53.6 °F 72% 30.06 in 6.2 mi NW 6.7 mph - N/A Rain Light Rain Showers
11:30 AM 62.6 °F 51.8 °F 68% 30.06 in 6.2 mi Variable 4.5 mph - N/A   Mostly Cloudy
12:00 PM 64.4 °F 51.8 °F 64% 30.06 in 6.2 mi NNW 6.7 mph - N/A Rain Light Rain Showers
12:30 PM 64.4 °F 53.6 °F 68% 30.06 in 6.2 mi NNW 6.7 mph - N/A   Scattered Clouds
1:00 PM 64.4 °F 53.6 °F 68% 30.06 in 6.2 mi Variable 4.5 mph - N/A   Scattered Clouds
1:30 PM 66.2 °F 53.6 °F 64% 30.06 in 6.2 mi Variable 4.5 mph - N/A   Scattered Clouds
2:00 PM 64 °F 58 °F 74% 29.87 in 6 mi Calm Calm - -   Overcast
2:00 PM 66.2 °F 55.4 °F 68% 30.06 in 6.2 mi WNW 6.7 mph - N/A   Mostly Cloudy
2:30 PM 66.2 °F 51.8 °F 60% 30.06 in 6.2 mi Variable 4.5 mph - N/A   Mostly Cloudy
3:00 PM 66.2 °F 53.6 °F 64% 30.04 in 6.2 mi Variable 4.5 mph - N/A   Mostly Cloudy
3:30 PM 60.8 °F 55.4 °F 82% 30.06 in 6.2 mi West 11.2 mph - N/A Rain Light Rain Showers
4:00 PM 62.6 °F 55.4 °F 77% 30.06 in 6.2 mi NNW 6.7 mph - N/A Rain Light Rain Showers
4:30 PM 64.4 °F 55.4 °F 73% 30.06 in 6.2 mi NE 6.7 mph - N/A   Mostly Cloudy
5:00 PM 64 °F 52 °F 56% 29.86 in 6 mi NW 4.5 mph - -   Partly Cloudy
5:00 PM 62.6 °F 55.4 °F 77% 30.06 in 6.2 mi ENE 8.9 mph - N/A   Mostly Cloudy
5:30 PM 62.6 °F 55.4 °F 77% 30.06 in 6.2 mi East 8.9 mph - N/A   Mostly Cloudy
6:00 PM 62.6 °F 55.4 °F 77% 30.06 in 6.2 mi East 8.9 mph - N/A   Mostly Cloudy
6:30 PM 60.8 °F 53.6 °F 77% 30.06 in 6.2 mi East 11.2 mph - N/A   Mostly Cloudy
7:00 PM 60.8 °F 53.6 °F 77% 30.06 in 6.2 mi East 6.7 mph - N/A   Overcast
7:30 PM 60.8 °F 53.6 °F 77% 30.06 in 6.2 mi ENE 6.7 mph - N/A   Scattered Clouds
8:00 PM 62 °F 53 °F 63% 29.87 in - Calm Calm - -   Overcast
8:00 PM 62.6 °F 51.8 °F 68% 30.09 in 6.2 mi Variable 4.5 mph - N/A   Scattered Clouds
8:30 PM 60.8 °F 53.6 °F 77% 30.09 in 6.2 mi SE 4.5 mph - N/A   Mostly Cloudy
9:00 PM 60.8 °F 53.6 °F 77% 30.09 in 6.2 mi Variable 2.2 mph - N/A   Scattered Clouds
9:30 PM 59.0 °F 53.6 °F 82% 30.09 in 6.2 mi Calm Calm - N/A Rain Light Rain Showers
10:00 PM 59.0 °F 55.4 °F 88% 30.09 in 6.2 mi Calm Calm - N/A Rain Light Rain Showers
10:30 PM 59.0 °F 55.4 °F 88% 30.09 in 6.2 mi Variable 2.2 mph - N/A   Mostly Cloudy
11:00 PM 59 °F 53 °F 75% 29.92 in - Calm Calm - -   Partly Cloudy
11:00 PM 59.0 °F 55.4 °F 88% 30.09 in 5.6 mi Calm Calm - N/A   Mostly Cloudy
11:30 PM 59.0 °F 55.4 °F 88% 30.09 in 5.6 mi West 2.2 mph - N/A   Mostly Cloudy